Regional Weather Roundup
Issued by NWS

Home | Current Version | Previous Version | Text Only | Print | Product List | Glossary On
Versions: 1 2 3 4 5 6 7 8 9 10 11 12 13 14 15 16 17 18 19 20 21 22 23 24 25 26 27 28 29 30 31 32 33 34 35 36 37 38 39 40 41 42 43 44 45 46 47 48 49 50
000
ASUS45 KBOI 292010
RWRID
WEATHER ROUNDUP FOR IDAHO
NATIONAL WEATHER SERVICE BOISE ID
100 PM MST THU JAN 29 2015

NOTE: "FAIR" INDICATES FEW OR NO CLOUDS BELOW 12000 FEET
WITH NO SIGNIFICANT WEATHER AND/OR OBSTRUCTIONS TO VISIBILITY

IDZ012-014-292100-
SOUTHWEST IDAHO


CITY           SKY/WX    TMP DP  RH WIND       PRES   REMARKS
BOISE          CLOUDY    43  33  68 SE5       30.40F
CALDWELL       CLOUDY    45  32  61 E5        30.42F
MOUNTAIN HOME  MOSUNNY   43  36  75 SE7       30.39F
$$

IDZ016-017-292100-
SOUTHCENTRAL IDAHO


CITY           SKY/WX    TMP DP  RH WIND       PRES   REMARKS
BURLEY         PTSUNNY   42  32  67 E14       30.36F
JEROME         MOSUNNY   43  34  70 NE15G21   30.36F
TWIN FALLS     MOSUNNY   42  33  70 NE13      30.35F
$$

IDZ019>023-292100-
SOUTHEAST IDAHO


CITY           SKY/WX    TMP DP  RH WIND       PRES   REMARKS
IDAHO FALLS    PTSUNNY   40  31  70 NE9       30.38F WCI  34
POCATELLO      MOSUNNY   40  35  83 SE3       30.38F
REXBURG        PTSUNNY   36  28  73 E7        30.39F WCI  30
$$

IDZ006-010-011-018-031-032-292100-
CENTRAL IDAHO MOUNTAINS


CITY           SKY/WX    TMP DP  RH WIND       PRES   REMARKS
MCCALL         MOSUNNY   30  25  81 S3        30.34F
HAILEY         MOSUNNY   39  28  65 NW7       30.36F WCI  34
STANLEY          N/A     20  15  81 CALM      30.38F
SALMON         CLOUDY    25  25 100 CALM      30.44F
CHALLIS        CLOUDY    31  25  78 CALM      30.41F
$$

IDZ002-004-006-007-026-292100-
NORTHERN IDAHO


CITY           SKY/WX    TMP DP  RH WIND       PRES   REMARKS
LEWISTON       CLOUDY    36  35  96 S3        30.42F
LOWELL           N/A     43  32  65 CALM      30.44F
COEUR D`ALENE  CLOUDY    36  32  87 NE12      30.40F WCI  27
MULLAN PASS    SUNNY     35  14  42 W3        30.31F
$$



USA.gov is the U.S. government's official web portal to all federal, state and local government web resources and services.